Location: Shannon
(40.5500°S, 175.4167°E)
Time: 20:55:26
(UTC+00:00)

H-2A R/B - Pass Details

Date: 17 November 2025
Orbit: 554 x 615 km, 98.5° (Epoch: 06 December)

Event Time Altitude Azimuth Distance (km) Brightness Sun altitude
Exits shadow 13:40:50 27° 79° (E) 1,158 3.5 -26.2°
Maximum altitude 13:42:00 32° 110° (ESE) 1,037 3.5 -26.1°
Drops below altitude 10° 13:45:44 10° 173° (S) 1,933 5.5 -25.7°
Sets 13:48:02 0° 183° (S) 2,831 6.4 -25.5°
